sat.trackr.live / text

‹ back to catalog

STARLINK-34279

NORAD 64389 · 2025-127V

PAYLOAD ACTIVE UNKNOWN

§ Identity

Operator
Country
US
Launch date
2025-06-13
Launch site
AFETR
Launch vehicle
Mass (kg)
RCS (m²)

Purposes: comms

External: N2YO · Heavens-Above · Gunter

§ Orbital elements

Epoch: 2026-09-19T23:10:41.678688Z

Period
94.27 min
Inclination
43.0060°
Eccentricity
0.0000956
Mean motion
15.27588114 rev/d
Perigee alt
482.4 km
Apogee alt
483.7 km
Semi-major
6,861.2 km
B*
2.6991e-4
RAAN
163.0858°
Arg perigee
273.3219°
Mean anomaly
86.7523°
Rev number
7,217

§ Raw data

STARLINK-342791 64389U 25127V   26262.96576017  .00007174  00000+0  26991-3 0  99942 64389  43.0060 163.0858 0000956 273.3219  86.7523 15.27588114 72173

JSON: /api/v1/satellites/64389 · /tle

For live sub-satellite position, see the globe view (requires WebGL).

§ Visibility from observer

Set your observer location to see the next 7 days of passes ≥ 10°. The values pass through the URL so the page stays shareable.

No JS? Fill the form by hand. The geolocation button needs JavaScript.